Location: Abraham Lincoln Continuation High School
(33.9711°N, 117.3662°W)
Time: 11:55:40
(UTC+00:00)

Lacrosse 5 - Pass Details

Date: 24 January 2021
Orbit: 715 x 724 km, 57.0° (Epoch: 03 March)

Event Time Altitude Azimuth Distance (km) Brightness Sun altitude
Rises 02:39:00 0° 320° (NW) 3,118 5.6 -18.1°
Reaches altitude 10° 02:41:22 10° 319° (NW) 2,195 4.7 -18.6°
Maximum altitude 02:46:26 83° 232° (SW) 724 1.9 -19.6°
Enters shadow 02:50:40 15° 146° (SE) 1,882 3.8 -20.5°
